[[{"header":{"parameterUnit":"m.s-1","parameterCategory":1,"la1":30.2991,"la2":30.254,"lo1":-89.0895,"lo2":-89.0444,"dy":0.0017,"dx":0.0017,"nx":28,"ny":28,"refTime":"2023-11-22T09:00:00:Z","depth":0,"parameterNumber":2,"parameterNumberName":"U-component_of_WINDS"},"data":[0,0,0,0,0,0,0,0,0,0,0,0,0,0,0,0,0,0,0,0,0,0,0,0,0,0,0,0,0,0,0,0,0,0,0,0,0,0,0,0,0,0,0,0,0,0,0,0,0,0,0,0,0,0,0,0,0,0,1.1312,1.1311,0,1.1271,1.127,1.127,1.1234,1.1233,1.1233,1.1233,1.119,1.1189,1.1189,0,0,0,0,0,0,0,0,0,0,0,0,0,1.1358,1.1358,1.1312,1.1311,1.1311,1.1271,1.127,1.127,1.1234,1.1233,1.1233,1.1232,1.119,1.1189,1.1189,0,0,0,0,0,0,0,0,0,0,0,0,0,1.133,1.1357,1.1312,1.1288,1.1285,1.1271,1.127,1.127,1.1234,1.1233,1.1233,1.1232,1.1191,1.119,1.1188,1.1194,0,0,1.1185,1.1184,0,0,0,0,0,0,0,0,1.1331,1.1328,1.1292,1.129,1.1287,1.1257,1.1271,1.1244,1.1234,1.1254,1.1233,1.1232,1.1213,1.121,1.1203,1.1192,1.119,1.1185,1.1184,1.1184,1.1183,0,0,0,0,0,0,0,1.1334,1.133,1.1295,1.1291,1.1288,1.1279,1.1275,1.1266,1.1237,1.1252,1.1249,1.1245,1.1211,1.1205,1.1202,1.119,1.1185,1.1184,1.1183,1.1183,1.1182,1.1182,0,0,0,0,0,0,1.1339,1.1332,1.1297,1.1294,1.1308,1.1279,1.1274,1.1267,1.1237,1.1232,1.1245,1.1243,1.1207,1.1204,1.1201,1.1205,1.1184,1.1183,1.1182,1.1181,1.1182,1.1183,0,0,0,0,0,0,1.134,1.1336,1.1298,1.1312,1.1307,1.1279,1.1272,1.1267,1.126,1.1232,1.1227,1.1244,1.1206,1.1202,1.1196,1.1203,1.1182,1.1181,1.118,1.1181,1.1182,1.1215,0,0,0,0,0,0,1.1342,1.1337,1.1339,1.1312,1.1306,1.1295,1.1272,1.1266,1.1258,1.1255,1.123,1.1225,1.1205,1.1198,1.1195,1.1201,1.118,1.118,1.1181,1.1182,1.1213,1.1217,1.122,0,0,0,0,0,1.1344,1.1349,1.1339,1.1335,1.1308,1.1295,1.1291,1.1269,1.1259,1.126,1.1243,1.1225,1.1204,1.1198,1.1194,1.12,1.1179,1.118,1.1182,1.1212,1.1216,1.122,0,0,0,0,0,0,1.1376,1.1345,1.1334,1.1331,1.1316,1.1289,1.129,1.1275,1.1262,1.126,1.1233,1.1228,1.1225,1.1212,1.1206,1.1205,1.1189,1.119,1.1213,1.1217,1.1221,1.1223,1.1179,0,0,0,0,0,1.1383,1.1376,1.1349,1.1349,1.1343,1.1318,1.1312,1.1296,1.128,1.1273,1.1255,1.1239,1.1229,1.1222,1.1211,1.1212,1.1206,1.1214,1.1218,1.1221,1.1222,1.1222,1.1225,1.1187,1.1187,1.1187,0,0,1.1397,1.138,1.1376,1.1356,1.1342,1.1335,1.1313,1.1306,1.13,1.1272,1.1265,1.1252,1.1232,1.123,1.1228,1.1219,1.1231,1.1223,1.1226,1.1224,1.1223,1.1227,1.123,1.1188,1.1188,1.1188,0,0,1.1419,1.1405,1.1404,1.1392,1.1372,1.1356,1.1356,1.1331,1.1321,1.1315,1.1293,1.1287,1.1269,1.1256,1.1248,1.1267,1.1251,1.1264,1.1283,1.1283,1.1286,1.1288,1.1295,1.1298,1.1265,1.1266,1.1266,0,1.1439,1.1428,1.1405,1.14,1.1392,1.1367,1.1365,1.1354,1.1332,1.1327,1.1318,1.1296,1.1281,1.1276,1.1281,1.1275,1.1274,1.1266,1.1287,1.129,1.1292,1.1298,1.13,1.1267,1.1267,1.1267,1.1267,0,1.1453,1.1446,1.1447,1.1427,1.1419,1.1416,1.1393,1.1388,1.1374,1.1359,1.1353,1.1334,1.1319,1.1317,1.1303,1.131,1.1305,1.1292,1.1276,1.1297,1.1303,1.1305,1.127,1.1269,1.1269,1.1268,0,0,1.1492,1.1461,1.1462,1.1453,1.1431,1.1424,1.1421,1.1407,1.1403,1.1389,1.1385,1.1372,1.136,1.135,1.1335,1.1335,1.1352,1.1322,1.1321,1.1328,1.1359,1.1368,1.1371,1.1341,1.1342,1.1342,1.136,0,1.151,1.1502,1.1482,1.148,1.1473,1.145,1.1447,1.1433,1.1419,1.1412,1.1397,1.1388,1.1373,1.1367,1.1366,1.135,1.1358,1.1348,1.1337,1.1337,1.1342,1.1374,1.1384,1.1402,1.1362,1.1363,1.1363,0,1.1529,1.1518,1.1515,1.1494,1.149,1.1487,1.1474,1.1467,1.1451,1.1441,1.1431,1.1414,1.141,1.1395,1.1388,1.1383,1.1377,1.1369,1.1369,1.1366,1.1351,1.1372,1.1407,1.141,1.1366,1.1366,1.1366,0,1.1558,1.1542,1.1538,1.1531,1.1506,1.1505,1.1495,1.1478,1.1472,1.146,1.1455,1.1443,1.1436,1.1427,1.1408,1.1399,1.1403,1.1387,1.1395,1.1395,1.1396,1.1396,1.143,1.1394,1.1394,1.1394,1.1394,0,1.1579,1.1578,1.1551,1.1548,1.1547,1.1525,1.1525,1.1512,1.1498,1.1493,1.1473,1.1469,1.1444,1.1437,1.1422,1.1419,1.1416,1.1408,1.1403,1.1409,1.141,1.1404,1.1402,1.1394,1.1394,1.1394,1.1394,0,1.1611,1.1592,1.1587,1.1564,1.1559,1.1559,1.154,1.1537,1.1523,1.1517,1.1514,1.1492,1.1483,1.1463,1.1449,1.1439,1.1439,1.1432,1.1445,1.1442,1.145,1.145,1.1481,1.1484,1.1447,1.1448,1.1448,0,1.1625,1.1624,1.1602,1.1597,1.1588,1.1581,1.1574,1.1554,1.1547,1.153,1.153,1.1519,1.1509,1.1496,1.1479,1.1468,1.146,1.1472,1.1458,1.1464,1.146,1.146,1.146,1.1475,1.1475,1.1476,1.1476,0,1.1652,1.1644,1.1635,1.1623,1.1616,1.1606,1.1595,1.1592,1.1569,1.1563,1.1554,1.1547,1.1533,1.1523,1.151,1.1499,1.1484,1.1481,1.1482,1.1487,1.1494,1.149,1.1452,1.148,1.148,1.1479,1.1479,1.1479,1.1675,1.1673,1.1658,1.1649,1.1639,1.1629,1.1626,1.1612,1.1604,1.1591,1.1579,1.1572,1.1557,1.1538,1.1529,1.1522,1.1515,1.1516,1.1516,1.1517,1.1519,1.1496,1.152,1.152,1.152,1.1519,1.1519,0,1.1701,1.1691,1.1683,1.1668,1.1662,1.1649,1.1636,1.1632,1.1625,1.1613,1.1604,1.1594,1.1585,1.1568,1.1557,1.1555,1.1548,1.1553,1.1553,1.1551,1.1527,1.1527,1.1559,1.1559,1.1559,1.1559,1.1559,1.1559,1.1714,1.171,1.17,1.1692,1.1681,1.1674,1.1667,1.1659,1.1649,1.1639,1.1631,1.162,1.1606,1.1595,1.1586,1.1581,1.1578,1.1585,1.1578,1.1556,1.1552,1.1548,1.1548,1.1585,1.1585,1.1602,1.1602,1.1602]},{"header":{"parameterUnit":"m.s-1","parameterCategory":1,"la1":30.2991,"la2":30.254,"lo1":-89.0895,"lo2":-89.0444,"dy":0.0017,"dx":0.0017,"nx":28,"ny":28,"refTime":"2023-11-22T09:00:00:Z","depth":0,"parameterNumber":3,"parameterNumberName":"V-component_of_WINDS"},"data":[0,0,0,0,0,0,0,0,0,0,0,0,0,0,0,0,0,0,0,0,0,0,0,0,0,0,0,0,0,0,0,0,0,0,0,0,0,0,0,0,0,0,0,0,0,0,0,0,0,0,0,0,0,0,0,0,0,0,-5.0352,-5.0354,0,-5.0519,-5.0521,-5.0523,-5.0477,-5.0473,-5.047,-5.0467,-5.0636,-5.0644,-5.0651,0,0,0,0,0,0,0,0,0,0,0,0,0,-4.999,-4.9997,-5.0352,-5.0354,-5.0356,-5.0519,-5.0521,-5.0524,-5.0477,-5.0473,-5.0469,-5.0465,-5.0634,-5.0643,-5.0652,0,0,0,0,0,0,0,0,0,0,0,0,0,-5.0151,-4.9999,-5.0351,-5.0352,-5.0354,-5.0518,-5.0521,-5.0524,-5.0478,-5.0473,-5.0468,-5.0463,-5.0631,-5.0642,-5.0653,-5.0826,0,0,-5.0688,-5.0693,0,0,0,0,0,0,0,0,-5.0142,-5.0165,-5.035,-5.0353,-5.0355,-5.0472,-5.0456,-5.0625,-5.0479,-5.0431,-5.0466,-5.0461,-5.0586,-5.06,-5.0643,-5.0834,-5.0841,-5.0689,-5.0696,-5.0701,-5.0705,0,0,0,0,0,0,0,-5.0131,-5.0157,-5.0418,-5.0353,-5.0356,-5.0344,-5.0361,-5.0488,-5.0535,-5.0435,-5.0432,-5.0452,-5.0586,-5.0632,-5.0647,-5.0844,-5.0689,-5.0699,-5.0706,-5.0711,-5.1185,-5.119,0,0,0,0,0,0,-5.0118,-5.0148,-5.0413,-5.0423,-5.0234,-5.0355,-5.0374,-5.0439,-5.0533,-5.0543,-5.0457,-5.045,-5.0615,-5.0633,-5.0652,-5.0861,-5.0701,-5.0712,-5.0719,-5.1179,-5.1186,-5.1192,0,0,0,0,0,0,-5.0111,-5.0142,-5.0406,-5.0285,-5.0317,-5.0366,-5.044,-5.0445,-5.0491,-5.055,-5.0557,-5.0495,-5.0611,-5.0636,-5.0783,-5.0866,-5.0717,-5.0728,-5.1172,-5.1181,-5.1189,-5.1279,0,0,0,0,0,0,-5.0101,-5.014,-5.0207,-5.0287,-5.0324,-5.0535,-5.0445,-5.0452,-5.0512,-5.0504,-5.0588,-5.0597,-5.0609,-5.0766,-5.0795,-5.0879,-5.0737,-5.1165,-5.1176,-5.1186,-5.1269,-5.129,-5.1308,0,0,0,0,0,-5.0088,-5.0225,-5.021,-5.0242,-5.0409,-5.054,-5.0561,-5.0573,-5.0519,-5.0586,-5.0623,-5.0594,-5.0852,-5.0782,-5.0813,-5.0903,-5.116,-5.1173,-5.1185,-5.1261,-5.1286,-5.1307,0,0,0,0,0,0,-5.0153,-5.0235,-5.022,-5.0387,-5.0457,-5.0532,-5.0617,-5.0599,-5.0686,-5.0675,-5.0685,-5.0705,-5.0855,-5.0894,-5.0813,-5.1075,-5.0998,-5.1018,-5.1044,-5.1069,-5.1088,-5.1075,-5.0746,0,0,0,0,0,-5.0186,-5.0287,-5.0353,-5.0494,-5.053,-5.0568,-5.0625,-5.0629,-5.0701,-5.073,-5.0778,-5.0849,-5.0945,-5.1009,-5.1102,-5.1274,-5.1292,-5.1351,-5.137,-5.1386,-5.1403,-5.1497,-5.1524,-5.1234,-5.1234,-5.1234,0,0,-5.0257,-5.0315,-5.0377,-5.0509,-5.0563,-5.0666,-5.0593,-5.0705,-5.0781,-5.0747,-5.0889,-5.0927,-5.1006,-5.1167,-5.124,-5.1203,-5.1487,-5.1402,-5.1414,-5.1423,-5.1513,-5.154,-5.1565,-5.1243,-5.1241,-5.124,0,0,-5.0439,-5.0493,-5.0616,-5.0672,-5.0756,-5.078,-5.0809,-5.0887,-5.0911,-5.1054,-5.103,-5.1121,-5.1288,-5.1346,-5.1397,-5.1601,-5.1577,-5.163,-5.1731,-5.1822,-5.1845,-5.1866,-5.1938,-5.1964,-5.1647,-5.1647,-5.1647,0,-5.0516,-5.0671,-5.0682,-5.0797,-5.0855,-5.0829,-5.0954,-5.1007,-5.1117,-5.1157,-5.1115,-5.1324,-5.1375,-5.1549,-5.1599,-5.1641,-5.1675,-5.1621,-5.1841,-5.1862,-5.1881,-5.195,-5.1978,-5.1653,-5.1652,-5.1652,-5.1651,0,-5.0762,-5.087,-5.096,-5.1067,-5.1135,-5.1254,-5.1282,-5.135,-5.1347,-5.1376,-5.1521,-5.1583,-5.1687,-5.1728,-5.1727,-5.1903,-5.1877,-5.1838,-5.1761,-5.1914,-5.198,-5.2006,-5.1662,-5.1659,-5.1658,-5.1656,0,0,-5.0989,-5.1101,-5.1134,-5.1182,-5.1272,-5.1355,-5.1473,-5.1576,-5.1634,-5.171,-5.1809,-5.1951,-5.1915,-5.1973,-5.1978,-5.2058,-5.2216,-5.2009,-5.2011,-5.2045,-5.2413,-5.2442,-5.2473,-5.2201,-5.2206,-5.221,-5.2406,0,-5.1179,-5.1387,-5.14,-5.1588,-5.1688,-5.1665,-5.1767,-5.1833,-5.1863,-5.1951,-5.1983,-5.2084,-5.2029,-5.2064,-5.2143,-5.218,-5.229,-5.2166,-5.2292,-5.2297,-5.2274,-5.2507,-5.2538,-5.2721,-5.2432,-5.2436,-5.244,0,-5.1428,-5.1513,-5.1711,-5.1787,-5.183,-5.1922,-5.2017,-5.2102,-5.2176,-5.2192,-5.2257,-5.225,-5.237,-5.229,-5.2455,-5.2371,-5.2423,-5.2449,-5.2456,-5.2469,-5.2378,-5.2526,-5.2779,-5.2807,-5.248,-5.2477,-5.2474,0,-5.1574,-5.1738,-5.1877,-5.1919,-5.2012,-5.2077,-5.2118,-5.2188,-5.2249,-5.2332,-5.2371,-5.2467,-5.2519,-5.2593,-5.2612,-5.2552,-5.2778,-5.2698,-5.2794,-5.2794,-5.2843,-5.284,-5.3108,-5.2877,-5.2876,-5.2876,-5.2875,0,-5.1785,-5.1907,-5.1944,-5.203,-5.2167,-5.218,-5.2314,-5.2351,-5.2413,-5.2506,-5.2491,-5.2578,-5.2598,-5.2688,-5.2704,-5.2838,-5.2862,-5.2878,-5.2881,-5.288,-5.2878,-5.2914,-5.2902,-5.2883,-5.2881,-5.288,-5.2879,0,-5.1971,-5.2001,-5.2152,-5.2227,-5.2249,-5.2346,-5.241,-5.2493,-5.252,-5.2637,-5.2665,-5.2709,-5.2815,-5.2841,-5.2967,-5.2977,-5.3137,-5.3127,-5.3112,-5.3112,-5.3206,-5.3197,-5.3508,-5.3549,-5.329,-5.3293,-5.3295,0,-5.2104,-5.2197,-5.2283,-5.2344,-5.2389,-5.2487,-5.255,-5.2566,-5.2632,-5.2723,-5.2795,-5.2899,-5.2984,-5.3154,-5.3196,-5.3293,-5.3285,-5.3388,-5.33,-5.3296,-5.3287,-5.3281,-5.3291,-5.3404,-5.3407,-5.3409,-5.3411,0,-5.2336,-5.2346,-5.2437,-5.2533,-5.2608,-5.2685,-5.2758,-5.2809,-5.2835,-5.2909,-5.3018,-5.3084,-5.3213,-5.3316,-5.3414,-5.3455,-5.3438,-5.3439,-5.3466,-5.3466,-5.3453,-5.3462,-5.3158,-5.3431,-5.3429,-5.3428,-5.3427,-5.3426,-5.2499,-5.2582,-5.2655,-5.2756,-5.2813,-5.2882,-5.2963,-5.3001,-5.3092,-5.3199,-5.3203,-5.3322,-5.3393,-5.3522,-5.3569,-5.3661,-5.363,-5.367,-5.368,-5.3689,-5.3698,-5.3439,-5.3679,-5.3679,-5.3678,-5.3678,-5.3677,0,-5.2731,-5.2777,-5.287,-5.2973,-5.3053,-5.3031,-5.311,-5.3178,-5.3283,-5.3351,-5.3435,-5.356,-5.366,-5.3711,-5.381,-5.3874,-5.3869,-5.39,-5.3896,-5.3905,-5.372,-5.3687,-5.3903,-5.3903,-5.3903,-5.3903,-5.3903,-5.3903,-5.2861,-5.2999,-5.3018,-5.3183,-5.3228,-5.3345,-5.3392,-5.3455,-5.351,-5.365,-5.3734,-5.3766,-5.3828,-5.3932,-5.4023,-5.4035,-5.4072,-5.4108,-5.4116,-5.3941,-5.3918,-5.3897,-5.3865,-5.4115,-5.4116,-5.4293,-5.4295,-5.4296]}]]